DELTA 1 R/B, 1983

Orbit data source: Space-Track

DELTA 1 R/B, 1983 is space debris in SSO originally from a launch on Thu, 03 Feb 1966 UTC launched from the Air Force Eastern Test Range (AFETR). Debris objects in space refer to the collection of defunct objects orbiting the Earth. Examples of debris include non-operational satellites, rocket bodies, and fragments generated from explosions, collisions, or faulty payload assembly.

Loading next visibility...
Identifier
1983, 1966-008B
Orbit
SSO
Country
Flag of USUS
Related business
Manufacturer
ABL
Mission
Spacecraft
Bus & Motor
ALTAIR, Unknown motor
Mass
60 kg wet, 60 kg dry
Launch date (UTC)
1966-02-03 (60 years ago)
Launch vehicle
Unknown
Launch site
Air Force Eastern Test Range (AFETR)
Object type
Payload
Rocket body
Debris
Shape & HBR
Unknown
Radar Cross Section
Medium (>0.1 m² and <1 m²)

Expand to show TLE details & history
Last TLE update: 9 hours ago

TLE from 9 hours ago
0 DELTA 1 R/B
1  1983U 66008B   26062.34596079  .00001777  00000-0  30570-3 0  9990
2  1983  98.0333 341.6840 0065257  71.2525 289.5746 14.68442766157105
Epoch: 2026-03-03T08:18Z
TLE epoch observation values (Epoch: 2026-03-03T08:18:11.012Z)
Latitude
-0.00007°
Longitude
56.01178°
Altitude
653.909 km
Speed
7.539 km/s
True Right ascension
22h 46m 44s
True Declination
0° 00' 00"
Sunlit
Object was in daylight at epoch
Visualization orbit readout
Latitude
Unknown
Longitude
Unknown
Altitude
Unknown
Speed
Unknown
Apparent Right ascension
Unknown
Apparent Declination
Unknown
Sunlit
N/A
Visualization observer readout
Local Sidereal Time
21:18:50
Azimuth
Unknown
Elevation
Unknown
Doppler factor
Unknown
Orbital elements
Apogee altitude
709.055 km
Perigee altitude
617.157 km
Semi-major axis
7,041.243 km
Eccentricity
0.00653
Inclination
98.0333°
RAAN
341.684°
Arg. of periapsis
71.2525°
True anomaly
288.86811°
Mean anomaly
289.5746°
Eccentric anomaly
289.22155°
Mean motion
3.67341 °/min
Orbital period
98 mins
BSTAR
0.0003057
Loading maneuver chart data...
Computing Atmospheric mass density...
Loading historical data...
Loading historical data...
Loading historical data...
Loading historical data...
Loading historical data...
Loading historical data...
Loading historical data...
Other satellites on launch #8 in the year 1966 (1966-02-03 UTC)

Documentation

Showing up to 5 results
|